Location: Chuathbaluk
(61.5726°N, 159.2454°W)
Time: 14:21:27
(UTC+00:00)

DELFI C3 - Pass Details

Date: 19 January 2021
Orbit: 531 x 550 km, 97.4° (Epoch: 04 March)

Event Time Altitude Azimuth Distance (km) Brightness Sun altitude
Exits shadow 06:20:14 28° 322° (NW) 1,059 ? -28.7°
Drops below altitude 10° 06:22:19 10° 337° (NNW) 1,842 ? -28.9°
Sets 06:24:31 0° 342° (NNW) 2,742 ? -29.2°
